Погода в Великой Топали

Россия / Брянская область     52°32′26″N   32°21′32″E
темп.,
°C
ветер,
м/с
пор.,
м/с
влажн.,
%
обл.,
%
осадки,
мм/ч
давл.,
гПа
погр.,
м
25 мая, ср
ср2500:00+9зсз34855 0.0 101457
03:00+9зсз3481100 0.0 101584
06:00+10зсз4880100 0.0 1015157
09:00+15зсз466958 0.0 1016465
12:00+18зсз56602 0.3 10161038
15:00+19зсз5649100 1.1 10162294
18:00+18з3565100 0.0 1015248
21:00+13юз227188 0.0 101614
26 мая, чт
чт2600:00+11ююз3475100 0.0 101552
03:00+10ю4979100 0.0 1014136
06:00+11ююв41276100 0.0 1011271
09:00+12ю81485100 0.8 1007654
12:00+11ююз81597100 4.1 1005841
15:00+12зсз11188896 4.5 10071161
18:00+16зсз8146826 0.1 10081701
21:00+12з6148180 0.2 1009509
27 мая, пт
пт2700:00+12з7158897 0.6 1009652
03:00+11з7149446 1.0 1009680
06:00+9з7149350 0.1 1010738
09:00+12зсз8117845 0.1 1012991
12:00+16з7105755 0.0 10111637
15:00+16зюз61266100 0.0 10101469
18:00+15ююз5127793 0.1 1007553
21:00+15юз81685100 0.8 1004905
28 мая, сб
сб2800:00+10з61293100 5.3 1005610
03:00+9з81292100 5.6 1007839
06:00+8зюз512945 0.0 1008563
09:00+11зюз7107616 0.0 10081117
12:00+15зюз7105619 0.1 10082021
15:00+14юз7116456 0.7 10081178
18:00+10юз3888100 3.7 1009402
21:00+8юз41092100 4.6 1011289
29 мая, вс
вс2900:00+7юз411950 0.0 1012246
03:00+6юз411945 0.0 1013238
06:00+6зюз411959 0.0 1014402
09:00+11зюз577851 0.0 1015815
12:00+13юз576953 0.1 10161097
15:00+15юз796479 0.5 10151628
18:00+14зюз5869100 0.3 1016777
21:00+11ююз3584100 0.4 101786